Weather observations for the past three days for
Hays, Hays Regional Airport
Imperial (Metric)
Date Time (cdt) Wind (mph) Vis. (mi.) Weather Sky Cond. Temperature (ºF) Relative Humidity Wind Chill (°F) Heat Index (°F) Pressure Precipitation (in)
Air Dwpt 6 hour altimeter (in) sea level (mb) 1 hr 3 hr 6 hr
Max. Min.
24 19:56 S 25 G 30 10.00 Fair and Breezy CLR 95 63 35% 96 29.76 1005.3
24 18:56 S 23 G 30 10.00 Fair and Breezy CLR 98.1 62.1 102.9 98.1 31% 99 29.76 1005.5
24 17:56 S 26 G 35 10.00 Fair and Windy CLR 100 57.9 25% 100 29.76 1005.5
24 16:56 S 23 G 33 10.00 A Few Clouds and Breezy FEW100 102 60.1 25% 103 29.78 1005.9
24 15:56 S 23 G 40 10.00 A Few Clouds and Breezy FEW110 100 62.1 29% 102 29.79 1006.5
24 14:56 S 26 G 31 10.00 Fair and Windy CLR 102 62.1 27% 104 29.8 1006.6
24 13:56 S 24 G 30 10.00 Fair and Breezy CLR 102 61 26% 103 29.81 1007.1
24 12:56 SW 21 G 28 10.00 Fair and Breezy CLR 100.9 60.1 100.9 70 26% 102 29.83 1007.7
24 11:56 SW 16 10.00 Fair CLR 98.1 62.1 31% 99 29.85 1008.4
24 10:56 SW 15 10.00 Fair CLR 93 64 38% 95 29.86 1008.7
24 09:56 SW 16 G 20 10.00 Fair CLR 88 66 48% 90 29.87 1009.4
24 08:56 S 14 10.00 Fair CLR 82 66 58% 84 29.88 1009.4
24 07:56 S 9 10.00 Fair CLR 75 66 74% 76 29.88 1009.7
24 06:56 Calm 10.00 Fair CLR 70 66 75.9 69.1 87% 29.87 1009.4
24 05:56 S 5 10.00 Fair CLR 71.1 66 84% 29.86 1009.1
24 04:56 SW 6 10.00 Fair CLR 73 66 79% 29.86 1009.0
24 03:56 S 3 10.00 Fair CLR 73 64.9 76% 29.87 1009.2
24 02:56 S 6 10.00 Fair CLR 73 64 74% 29.88 1009.7
24 01:56 S 6 10.00 Fair CLR 73.9 63 69% 29.89 1010.0
24 00:56 S 9 10.00 Fair CLR 75.9 63 96.1 73.9 64% 78 29.9 1010.3
23 22:56 SE 8 10.00 Fair CLR 75.9 63 64% 78 29.9 1010.5
23 21:56 S 9 10.00 Fair CLR 80.1 62.1 54% 81 29.89 1010.3
23 20:56 S 12 10.00 Fair CLR 88 59 38% 87 29.89 1010.1
23 19:56 S 12 10.00 Fair CLR 93 55.9 29% 91 29.9 1010.5
23 18:56 S 15 10.00 Fair CLR 96.1 57.9 98.1 90 28% 95 29.9 1010.4
23 17:56 S 18 G 24 10.00 Fair CLR 96.1 63 34% 98 29.89 1010.3
23 16:56 S 16 G 21 10.00 Fair CLR 97 60.1 29% 97 29.91 1010.7
23 15:56 S 12 G 23 10.00 Fair CLR 97 57 26% 96 29.92 1011.2
23 14:56 S 13 G 20 10.00 Fair CLR 95 64 36% 97 29.94 1011.8
23 13:56 SW 13 10.00 Fair CLR 93 66.9 42% 97 29.97 1012.8
23 12:56 S 9 10.00 Fair CLR 90 66 90 64.9 45% 93 29.99 1013.6
23 11:56 S 12 10.00 Fair CLR 88 66 48% 90 30 1013.9
23 10:56 S 12 10.00 Fair CLR 84.9 68 57% 88 30 1014.0
23 09:56 SE 13 G 20 10.00 Fair CLR 81 68 65% 84 30.01 1014.2
23 08:56 SE 13 10.00 Fair CLR 75.9 69.1 79% 77 30.02 1014.8
23 07:56 SE 7 10.00 Fair CLR 71.1 66.9 87% 30.02 1014.9
23 06:56 NW 5 10.00 Fair CLR 64.9 64 71.1 62.1 97% 30.02 1014.8
23 05:56 NW 3 0.75 Fog/Mist CLR 64 64 100% 30.01 1014.4
23 04:56 Calm 10.00 Fair CLR 66 64 93% 30 1014.0
23 03:56 Calm 10.00 Fair CLR 66.9 63 87% 29.99 1013.7
23 02:56 Calm 10.00 Fair CLR 69.1 64.9 87% 29.99 1013.7
23 01:56 NE 9 10.00 Fair CLR 70 64.9 84% 30 1014.0
23 00:56 NE 7 10.00 Fair CLR 71.1 64.9 87.1 71.1 81% 30 1013.9
22 23:56 NE 8 10.00 Fair CLR 73 66 79% 29.99 1013.9
22 22:56 NE 8 10.00 Fair CLR 75.9 66.9 74% 77 29.99 1013.4
22 21:56 NE 7 10.00 Fair CLR 79 66.9 67% 81 29.96 1012.5
22 20:56 NE 7 10.00 Fair CLR 82 66.9 60% 85 29.94 1011.8
22 19:56 NE 10 10.00 Fair CLR 86 66.9 53% 89 29.93 1011.4
22 18:56 NE 10 10.00 Fair CLR 87.1 66.9 91.9 86 51% 90 29.92 1011.3
22 17:56 N 14 10.00 Fair CLR 91 66 44% 94 29.92 1011.0
22 16:56 N 10 10.00 A Few Clouds FEW060 91 66.9 45% 94 29.92 1011.0
22 15:56 N 16 G 21 10.00 A Few Clouds FEW055 89.1 66.9 48% 92 29.92 1010.9
22 14:56 NW 14 G 21 10.00 Fair CLR 89.1 68 50% 93 29.92 1011.1
22 13:56 N 15 G 24 10.00 Fair CLR 87.1 69.1 55% 91 29.92 1011.0
22 12:56 NW 16 G 24 10.00 A Few Clouds FEW042 88 69.1 88 75.9 54% 92 29.91 1010.7
22 11:56 NW 15 10.00 A Few Clouds FEW035 84.9 69.1 59% 89 29.89 1010.1
22 10:56 W 18 G 23 10.00 Fair CLR 84.9 69.1 59% 89 29.89 1009.9
22 09:56 SW 21 G 26 10.00 Fair and Breezy CLR 82.9 66 57% 85 29.87 1009.3
22 08:56 SW 17 G 23 10.00 Fair CLR 80.1 66 62% 82 29.87 1009.3
22 07:56 SW 18 G 28 10.00 Fair CLR 78.1 66.9 69% 80 29.86 1009.1
22 06:56 SW 17 10.00 Fair CLR 75.9 66.9 79 75 74% 77 29.86 1009.2
22 05:56 S 17 10.00 Fair CLR 75.9 66.9 74% 77 29.86 1009.1
22 04:56 S 16 G 26 10.00 Fair CLR 77 66.9 71% 79 29.87 1009.2
22 03:56 S 20 G 25 10.00 Fair CLR 75.9 66.9 74% 77 29.88 1009.6
22 02:56 S 16 10.00 Fair CLR 77 68 74% 79 29.91 1010.8
22 01:56 Calm 10.00 Fair CLR 78.1 68 71% 80 29.92 1011.1
22 00:56 S 18 G 26 10.00 Fair CLR 79 68 89.1 79 69% 81 29.94 1011.8
21 23:56 S 22 G 28 10.00 Fair and Breezy CLR 80.1 66.9 64% 82 29.93 1011.4
21 22:56 S 18 G 28 10.00 Fair CLR 80.1 66.9 64% 82 29.96 1012.4
21 21:56 S 25 G 29 10.00 Fair and Breezy CLR 81 66 61% 83 29.93 1011.5
21 20:56 S 23 G 30 10.00 Fair and Breezy CLR 84.9 66.9 55% 88 29.92 1011.0
Date Time (cdt) Wind (mph) Vis. (mi.) Weather Sky Cond. Air Dwpt Max. Min. Relative Humidity Wind Chill (°F) Heat Index (°F) altimeter (in) sea level (mb) 1 hr 3 hr 6 hr
6 hour
Temperature (ºF) Pressure Precipitation (in)